Simultaneous Nadir Overpasses (SNOs) Predictions

Prediction of SNOs between AQUA and METOP-A Satellite Orbit:

Table of predicted SNOs for the next 14.0 days since TLE Epoch: 9/16/2016
Index Date (AQUA) Time (AQUA) Lat,Lon (AQUA) SZA (AQUA ) Date (METOP-A) Time (METOP-A) Lat,Lon (METOP-A) SZA (METOP-A ) Distance(km) Time Diff (sec)
1 09/17/2016 17:21:36 -73.82, 93.75 108.11 09/17/2016 17:21:01 -73.85, 93.80 108.08 3.30 35
2 09/17/2016 18:11:05 73.90, -98.78 71.99 09/17/2016 18:11:40 73.90, -98.75 71.99 1.18 35
3 09/20/2016 12:55:49 -73.82, 160.20 107.03 09/20/2016 12:55:24 -73.81, 160.12 107.03 2.62 25
4 09/20/2016 13:45:18 73.90, -32.34 73.07 09/20/2016 13:46:02 73.91, -32.31 73.08 1.58 44
5 09/23/2016 07:40:25 73.18, 60.35 73.39 09/23/2016 07:39:19 73.14, 57.66 73.41 86.77 66
6 09/23/2016 08:30:03 -73.83,-133.38 105.93 09/23/2016 08:29:47 -73.82,-133.45 105.93 2.48 16
7 09/23/2016 09:19:32 73.91, 34.08 74.17 09/23/2016 09:20:25 73.92, 34.12 74.18 1.57 53
8 09/26/2016 03:14:46 73.56, 125.99 74.88 09/26/2016 03:13:35 73.49, 124.87 74.84 36.34 71
9 09/26/2016 04:04:17 -73.85, -66.97 104.82 09/26/2016 04:04:10 -73.82, -67.03 104.84 2.90 7
10 09/26/2016 04:53:46 73.93, 100.48 75.28 09/26/2016 04:54:48 73.92, 100.54 75.27 1.81 62
11 09/28/2016 22:49:03 73.80,-168.07 76.22 09/28/2016 22:47:51 73.79,-168.02 76.21 1.85 72
12 09/28/2016 23:38:30 -73.87, -0.59 103.70 09/28/2016 23:38:31 -73.88, -0.50 103.70 2.86 1




NCC Satellite Simultaneous Nadir Overpasses (SNOs) Prediction Service
